User: anonymous   Login
Location: Unspecified
(0.0000°N, 0.0000°E)
Time: 17:36:49
(UTC+00:00)
Language:

COSMOS 2429 - Orbit

View from above orbital plane
View from above orbital plane
View from above satellite
View from above satellite

Ground track
Ground track

The orbit data is extracted from the following two-line orbital elements,

1 32052U 07038A   18170.51129552  .00000018  00000-0  28212-5 0  9996
2 32052  82.9796 197.1578 0039942 106.6838 253.8708 13.74903937540527
Epoch (UTC): 19 June 2018 12:16:15
Eccentricity: 0.0039942
inclination: 82.9796°
perigee height: 952 km
apogee height: 1011 km
right ascension of ascending node: 197.1578°
argument of perigee: 106.6838°
revolutions per day: 13.74903937
mean anomaly at epoch: 253.8708°
orbit number at epoch: 54052

The dashed part of the orbit path shows where the satellite is in the earth's shadow,  

DLR